This demonstration page uses our WeatherBlox Daily Observations layout. Learn more.

38.89511, -77.03637

Hourly Observations for June 30, 2020

Temp ( °F °C ) Dew Point ( °F °C ) Humidity (%) Winds ( mph kmh ) Pressure ( in mb ) Visibility ( mi km ) Precip ( " mm )
12:52 am 00:52 Mostly Cloudy 78 25.6 67 19.4 69 69 SSW 3 6 29.88 1012 10 16.0934 0 0
1:52 am 01:52 Mostly Cloudy 78 25.6 63 17.2 60 60 SW 5 7 29.87 1012 10 16.0934 0 0
2:52 am 02:52 Mostly Cloudy 76 24.4 68 20 77 77 N 3 6 29.86 1011 10 16.0934 0 0
3:52 am 03:52 Mostly Cloudy 74 23.3 65 18.3 74 74 NNW 9 15 29.87 1012 10 16.0934 0 0
4:52 am 04:52 Partly Cloudy 75 23.9 64 17.8 69 69 NNW 7 11 29.88 1012 10 16.0934 0 0
5:52 am 05:52 Partly Cloudy 73 22.8 63 17.2 71 71 NNW 8 13 29.89 1012 10 16.0934 0 0
6:52 am 06:52 Partly Cloudy 74 23.3 64 17.8 71 71 NNW 7 11 29.91 1013 10 16.0934 0 0
7:52 am 07:52 Partly Cloudy 77 25 64 17.8 64 64 N 8 13 29.91 1013 10 16.0934 0 0
8:52 am 08:52 Mostly Cloudy 81 27.2 62 16.7 53 53 N 8 13 29.92 1013 10 16.0934 0 0
9:52 am 09:52 Partly Cloudy 82 27.8 62 16.7 51 51 NE 3 6 29.93 1014 10 16.0934 0 0
10:52 am 10:52 Mostly Sunny 85 29.4 62 16.7 46 46 VRB 3 6 29.93 1014 10 16.0934 0 0
11:52 am 11:52 Mostly Sunny 87 30.6 61 16.1 42 42 undefined N/A 29.92 1013 10 16.0934 0 0
12:52 pm 12:52 Partly Cloudy 88 31.1 60 15.6 39 39 NW 6 9 29.92 1013 10 16.0934 0 0
1:52 pm 13:52 Partly Cloudy 89 31.7 60 15.6 38 38 NE 7 11 29.9 1013 10 16.0934 0 0
2:52 pm 14:52 Partly Cloudy 91 32.8 59 15 34 34 N 10 17 29.88 1012 10 16.0934 0 0
3:52 pm 15:52 Partly Cloudy 90 32.2 58 14.4 34 34 NNW 10 17 29.86 1011 10 16.0934 0 0
4:52 pm 16:52 Mostly Sunny 90 32.2 58 14.4 34 34 NNW 14 22 29.86 1011 10 16.0934 0 0
5:52 pm 17:52 Partly Cloudy 91 32.8 59 15 34 34 N 12 19 29.84 1011 10 16.0934 0 0
6:52 pm 18:52 Partly Cloudy 89 31.7 58 14.4 35 35 NNW 10 17 29.84 1011 10 16.0934 0 0
7:52 pm 19:52 Partly Cloudy 87 30.6 59 15 39 39 NW 7 11 29.84 1011 10 16.0934 0 0
8:52 pm 20:52 Mostly Cloudy 84 28.9 66 18.9 55 55 SE 10 17 29.85 1011 10 16.0934 0 0
9:52 pm 21:52 Cloudy 82 27.8 68 20 63 63 Calm 29.88 1012 10 16.0934 0 0
10:52 pm 22:52 Mostly Cloudy 81 27.2 65 18.3 58 58 E 6 9 29.89 1012 10 16.0934 0 0
11:52 pm 23:52 Cloudy 81 27.2 66 18.9 61 61 ESE 6 9 29.88 1012 10 16.0934 0.001 0.001

Powered by AerisWeather